Погода в Джизаке

Погода в Джизаке : погода сейчас, прогноз погоды и архив. Всё, что Вы хотите узнать о погоде в Джизаке!

Хотите узнать прогноз погоды в Джизаке? Тогда Вам сюда: Погода в Джизаке

Поиск расширенной информации на нашем сайте:

Другие новости

Новости СМИ2

Главная страница сайта

Новости сайта

03.07.2017

Напоминаем, что на нашем специализированном сайте Метеоцентр.Азия вы можете получить высокодетализированные автоматические прогнозы погоды по пунктам России, СНГ и мира в авиационном формате (включающие направление и скорость ветра, видимость, явления погоды, количество и форму облачности, нижнюю и верхнюю границу облачности).


Погода в Джизаке - сегодня

Время (UTC), дата Ветер
(°,м/с) 
Видим.   Явления Облачность Т
(°С)
Тd
(°С)
f(%) Тe
(°С)
Pmin
(гПа)
dP
(гПа)
Po
(мм)
O2
(г/м3)
Тmin Tmax R s Состояние
почвы
15 17.07.18 090 (В) 20000 м    ясно 
+34.2 +20.4 45 +55  997.4  0.1  720  253    +38       
18 17.07.18 130 (ЮВ) н/о    ясно 
+26.9 +17.9 58 +42  998.8  0.4  721  260    +38       
21 17.07.18 тихо ()   н/о    ясно 
+22.9 +16.7 68 +36  999.7  0.3  721  264           
00 18.07.18 300 (СЗ) 20000 м    ясно 
+22.2 +15.1 64 +32  999.9  721  265           
03 18.07.18 340 (С) 20000 м    ясно 
+28.6 +19.7 59 +48  999.6  0.6  721  258  +21.5        сухая 
06 18.07.18 040 (СВ) 20000 м    ясно 
+34.9 +23.1 51 +63  998.6  -0.1  721  252  +21.5         
09 18.07.18 040 (СВ) 20000 м    ясно 
+37.1 +21.2 40 +60  998  -0.4  721  251           
12 18.07.18 020 (С) 20000 м    ясно 
+37.6 +20.5 37 +59  997.5  -0.4  721  250           
15 18.07.18 тихо ()   20000 м    3/0 средняя 
[Ac lent]
+34 +20.4 45 +55  997.6  -0.2  720  253    +38.4       
18 18.07.18 310 (СЗ) н/о    6/0 средняя 
[Ac lent]
+27.8 +19.3 60 +46  998.5  720  259    +38.4       
21 18.07.18 тихо ()   н/о    ясно 
+25.5 +17.2 60 +40  998.6  -0.2  720  262           
00 19.07.18 140 (ЮВ) 20000 м    4/1 600 м 
[Cu med, cong]
+24 +15.4 59 +35  998.6  -0.2  720  263           
03 19.07.18 350 (С) 20000 м    4/4 600 м 
[Cu med, cong]
+29 +19.3 56 +47  999.6  1.7  721  258           
06 19.07.18 350 (С) 20000 м    3/3 600 м 
[Cu med, cong]
+34.8 +21.5 46 +59  999.3  0.4  722  253  +24         
09 19.07.18 350 (С) 20000 м    1/1 1000 м 
[Cu med, cong]
+36.6 +20.9 40 +59  998.6  -0.5  721  251           
12 19.07.18 350 (С) 20000 м    3/3 1000 м 
[Cu med, cong]
+38.1 +20.6 36 +60  997.6  -0.8  721  250           
15 19.07.18 090 (В) 20000 м    ясно 
+34 +18.6 40 +51  997.8  -0.4  720  254    +38.5       
18 19.07.18 тихо ()   н/о    ясно 
+29 +16.8 48 +42  998.4  720  259    +38.5       
21 19.07.18 тихо ()   н/о    ясно 
+22 +14.3 62 +31  998.8  -0.5  720  266           
00 20.07.18 тихо ()   10 км    ясно 
+20.8 +12.9 61 +27  999.2  0.3  720  267    +1.9       
03 20.07.18 тихо ()   20000 м    ясно 
+30.2 +19 51 +48  997.9  720  257           
06 20.07.18 350 (С) 20000 м    ясно 
+35.4 +22.5 47 +62  998  0.7  721  251  +20.2         
09 20.07.18 350 (С) 20000 м    ясно 
+38.2 +22.4 40 +65  996.9  -0.8  720  249           
12 20.07.18 350 (С) 20000 м    ясно 
+39 +22.7 39 +66  996.7  720  248           
15 20.07.18 тихо ()   20000 м    ясно 
+34.3 +21 46 +57  997.3  720  253    +39.4       
Время (UTC), дата Ветер
(°,м/с) 
Видим.   Явления Облачность Т
(°С)
Тd
(°С)
f(%) Тe
(°С)
Pmin
(гПа)
dP
(гПа)
Po
(мм)
O2
(г/м3)
Тmin Tmax R s Состояние
почвы

Для получения пояснительной информации подведите курсор к названию столбца.

ПОГОДА в Джизаке - архив

Всё, что Вы хотите узнать о погоде в Джизаке - удобно и подробно!

Выберите нужную дату (начиная с 1 января 2015* года) и нажмите кнопку "Найти".
Будут отображены архивные сводки погоды по пункту Джизак, начиная с указанной даты.


Отображать данные в формате CSV (для использования в таблицах Excel)


Внимание! Наш архив погоды предназначен исключительно для личного некоммерческого использования в познавательных целях. Если Вам необходимы официальные справки о состоянии погоды (для производственных, юридических, коммерческих и т.п. целей), обращайтесь в органы Росгидромета.

*Примечание: данная дата относится к архиву по метеостанциям СССР (Россия, СНГ, Балтия).
Архив по метеостанциям Зарубежной Европы и Азии (кроме Китая) хранится 10 дней, по другим регионам земного шара (Китай, Африка, Америка, Австралия, Океания) - 1 день.

Джизак - район местоположения метеостанции


Название, широта, долгота, высота метеостанции:
Джизак 40.1°ш. 67.8°д. 345 м над ур. моря [Узбекистан]

Дополнительная информация

В oтличие oт бoльшинства пoгoдных сайтoв мы публикуем пoдрoбную метеoинфoрмацию в детальнoм прoфессиoнальнoм фoрмате.

Характеристики температуры и влажнoсти вoздуха измеряются на высoте 2 м в тени вдали oт зданий и деревьев.
Скoрoсть ветра измеряется на высoте 10 м (на урoвне рoста челoвека скoрoсть ветра ниже в 1.5-2 раза). Если метеoстанция нахoдится в гoрoде или в лесу, тo скoрoсть ветра занижена на 2-4 м/с пo сравнению с oткрытым местoм. Скoрoсть ветра над акватoриями крупных рек и oзёр, а также на вершинах хoлмoв на 2-5 м/с выше, чем в oбычных услoвиях.
Атмoсфернoе давление в разных тoчках местнoсти мoжет значительнo oтличаться oт давления на метеoстанции, в зависимoсти oт услoвий рельефа (при пoдъёме на 10 м давление пoнижается примернo на 1 мм рт.ст.).